User: anonymous   Login
Location: Unspecified
(0.0000°N, 0.0000°E)
Time: 18:24:31
(UTC+00:00)
Language:

MICROSCOPE - Orbit

View from above orbital plane
View from above orbital plane
View from above satellite
View from above satellite

Ground track
Ground track

The orbit data is extracted from the following two-line orbital elements,

1 41457U 16025B   19051.98542086  .00000067  00000-0  26548-4 0  9995
2 41457  98.2404  58.8277 0001505 122.5316 237.6026 14.54020957149814
Epoch (UTC): 20 February 2019 23:39:00
Eccentricity: 0.0001505
inclination: 98.2404°
perigee height: 711 km
apogee height: 713 km
right ascension of ascending node: 58.8277°
argument of perigee: 122.5316°
revolutions per day: 14.54020957
mean anomaly at epoch: 237.6026°
orbit number at epoch: 14981

The dashed part of the orbit path shows where the satellite is in the earth's shadow,  

DLR